Weather History for Cando, ND

Change the Weather History Date:

Tuesday, January 22, 2013

  Actual Average (KDVL) Record (KDVL)
Temperature  
Mean Temperature -9 °F -  
Max Temperature 5 °F 19 °F 39 °F (1990)
Min Temperature -23 °F 3 °F -31 °F (1963)
Degree Days  
Heating Degree Days 74    
Moisture  
Dew Point -14 °F    
Average Humidity 73    
Maximum Humidity 92    
Minimum Humidity 63    
Precipitation  
Precipitation 0.00 in - - ()
Sea Level Pressure  
Sea Level Pressure 30.16 in    
Wind  
Wind Speed 6 mph (West)    
Max Wind Speed 13 mph    
Max Gust Speed -    
Visibility 10 miles    
Events      
Averages and records for this station are not official NWS values.
T = Trace of Precipitation, MM = Missing Value Source: NWS Daily Summary

Daily Weather History Graph

Daily Weather History Graph

Search for Another Location

Airport:

Trip Planner

Search our weather history database for the weather conditions in past years. The results will help you decide how hot, cold, wet, or windy it might be!

Date:

Astronomy

Jan. 22, 2013 Rise Set
Actual Time 8:17 AM CST 5:20 PM CST
Civil Twilight 7:42 AM CST 5:55 PM CST
Nautical Twilight 7:04 AM CST 6:33 PM CST
Astronomical Twilight 6:27 AM CST 7:10 PM CST
Moon 1:40 PM CST (1/22) 4:43 AM CST (1/22)
Length of Visible Light 10h 12m
Length of Day
9h 03m
Waxing Gibbous, 83% of the Moon is Illuminated
Jan 22
Waxing Gibbous
Jan 26
Full
Feb 3
Last Quarter
Feb 10
New
Feb 17
First Quarter

Hourly Weather History & Observations

Time (CST) Temp. Windchill Dew Point Humidity Pressure Visibility Wind Dir Wind Speed Gust Speed Precip Events Conditions
12:15 AM -20.2 °F -37.3 °F -27.4 °F 69% 30.23 in 10.0 mi West 6.9 mph - N/A   Clear
12:35 AM -22.0 °F -39.4 °F -29.2 °F 69% 30.23 in 10.0 mi West 6.9 mph - N/A   Clear
12:55 AM -22.0 °F -42.3 °F -29.2 °F 69% 30.23 in 10.0 mi West 9.2 mph - N/A   Clear
1:15 AM -22.0 °F -41.0 °F -29.2 °F 69% 30.22 in 10.0 mi West 8.1 mph - N/A   Clear
1:55 AM -22.0 °F -41.0 °F -31.0 °F 63% 30.22 in 10.0 mi West 8.1 mph - N/A   Clear
2:15 AM -22.0 °F -41.0 °F -29.2 °F 69% 30.22 in 10.0 mi West 8.1 mph - N/A   Clear
2:35 AM -22.0 °F -41.0 °F -29.2 °F 69% 30.22 in 10.0 mi West 8.1 mph - N/A   Clear
2:55 AM -22.0 °F -41.0 °F -29.2 °F 69% 30.23 in 10.0 mi West 8.1 mph - N/A   Clear
3:15 AM -22.0 °F -43.6 °F -29.2 °F 69% 30.24 in 10.0 mi West 10.4 mph - N/A   Clear
3:35 AM -22.0 °F -37.7 °F -29.2 °F 69% 30.25 in 10.0 mi WNW 5.8 mph - N/A   Clear
3:55 AM -22.0 °F -33.0 °F -29.2 °F 69% 30.24 in 10.0 mi WNW 3.5 mph - N/A   Clear
4:15 AM -20.2 °F -30.9 °F -29.2 °F 63% 30.24 in 10.0 mi WNW 3.5 mph - N/A   Clear
4:35 AM -20.2 °F -30.9 °F -27.4 °F 69% 30.23 in 10.0 mi WNW 3.5 mph - N/A   Scattered Clouds
4:55 AM -20.2 °F -30.9 °F -27.4 °F 69% 30.22 in 10.0 mi West 3.5 mph - N/A   Partly Cloudy
5:15 AM -22.0 °F -35.6 °F -29.2 °F 69% 30.21 in 10.0 mi WSW 4.6 mph - N/A   Clear
5:35 AM -23.8 °F -43.2 °F -31.0 °F 69% 30.21 in 10.0 mi WSW 8.1 mph - N/A   Clear
5:55 AM -23.8 °F -39.8 °F -31.0 °F 69% 30.21 in 10.0 mi West 5.8 mph - N/A   Clear
6:15 AM -22.0 °F -37.7 °F -29.2 °F 69% 30.20 in 10.0 mi WSW 5.8 mph - N/A   Clear
6:35 AM -23.8 °F -39.8 °F -31.0 °F 69% 30.21 in 10.0 mi West 5.8 mph - N/A   Clear
6:55 AM -22.0 °F -35.6 °F -29.2 °F 69% 30.21 in 10.0 mi West 4.6 mph - N/A   Clear
7:15 AM -23.8 °F -41.6 °F -31.0 °F 69% 30.21 in 10.0 mi West 6.9 mph - N/A   Mostly Cloudy
7:35 AM -22.0 °F -35.6 °F -29.2 °F 69% 30.21 in 10.0 mi West 4.6 mph - N/A   Overcast
7:55 AM -20.2 °F -33.5 °F -27.4 °F 69% 30.20 in 10.0 mi WSW 4.6 mph - N/A   Overcast
8:15 AM -18.4 °F -33.4 °F -25.6 °F 70% 30.20 in 10.0 mi West 5.8 mph - N/A   Overcast
8:35 AM -16.6 °F -26.8 °F -23.8 °F 70% 30.21 in 10.0 mi West 3.5 mph - N/A   Overcast
8:55 AM -16.6 °F -26.8 °F -22.0 °F 76% 30.20 in 10.0 mi West 3.5 mph - N/A   Overcast
9:15 AM -13.0 °F -22.7 °F -20.2 °F 70% 30.20 in 10.0 mi WSW 3.5 mph - N/A   Overcast
9:35 AM -11.2 °F - -18.4 °F 70% 30.20 in 10.0 mi Calm Calm - N/A   Overcast
9:55 AM -9.4 °F -18.6 °F -16.6 °F 71% 30.20 in 10.0 mi West 3.5 mph - N/A   Overcast
10:15 AM -7.6 °F -22.1 °F -13.0 °F 77% 30.21 in 10.0 mi West 6.9 mph - N/A   Overcast
10:35 AM -7.6 °F -22.1 °F -13.0 °F 77% 30.21 in 10.0 mi West 6.9 mph - N/A   Overcast
10:55 AM -5.8 °F -19.9 °F -11.2 °F 77% 30.20 in 10.0 mi West 6.9 mph - N/A   Overcast
11:15 AM -4.0 °F -19.0 °F -11.2 °F 71% 30.20 in 10.0 mi West 8.1 mph - N/A   Overcast
11:35 AM -4.0 °F -20.2 °F -11.2 °F 71% 30.20 in 10.0 mi West 9.2 mph - N/A   Overcast
11:55 AM -2.2 °F -18.0 °F -11.2 °F 66% 30.19 in 10.0 mi West 9.2 mph - N/A   Overcast
12:15 PM -2.2 °F -18.9 °F -11.2 °F 66% 30.18 in 10.0 mi West 10.4 mph - N/A   Overcast
12:35 PM -0.4 °F -15.7 °F -9.4 °F 66% 30.17 in 10.0 mi West 9.2 mph - N/A   Overcast
12:55 PM -0.4 °F -18.4 °F -9.4 °F 66% 30.17 in 10.0 mi West 12.7 mph - N/A   Overcast
1:15 PM -0.4 °F -16.7 °F -7.6 °F 72% 30.15 in 10.0 mi West 10.4 mph - N/A   Overcast
1:35 PM 1.4 °F -13.5 °F -7.6 °F 66% 30.14 in 10.0 mi West 9.2 mph - N/A   Overcast
1:55 PM 1.4 °F -16.1 °F -7.6 °F 66% 30.14 in 10.0 mi West 12.7 mph - N/A   Overcast
2:15 PM 1.4 °F -15.3 °F -5.8 °F 72% 30.13 in 10.0 mi West 11.5 mph - N/A   Overcast
2:35 PM 1.4 °F -15.3 °F -4.0 °F 78% 30.13 in 10.0 mi West 11.5 mph - N/A   Overcast
2:55 PM 1.4 °F -14.5 °F -4.0 °F 78% 30.13 in 10.0 mi West 10.4 mph - N/A   Overcast
3:15 PM 3.2 °F -12.2 °F -4.0 °F 72% 30.13 in 10.0 mi West 10.4 mph - N/A   Overcast
3:35 PM 3.2 °F -9.1 °F -4.0 °F 72% 30.13 in 10.0 mi West 6.9 mph - N/A   Overcast
3:55 PM 3.2 °F -9.1 °F -4.0 °F 72% 30.13 in 10.0 mi West 6.9 mph - N/A   Overcast
4:15 PM 3.2 °F -7.8 °F -2.2 °F 78% 30.12 in 10.0 mi West 5.8 mph - N/A   Overcast
4:35 PM 3.2 °F -7.8 °F -2.2 °F 78% 30.11 in 10.0 mi WSW 5.8 mph - N/A   Overcast
4:55 PM 5.0 °F -6.9 °F -2.2 °F 72% 30.11 in 10.0 mi WSW 6.9 mph - N/A   Mostly Cloudy
5:15 PM 5.0 °F -4.1 °F -2.2 °F 72% 30.12 in 10.0 mi WSW 4.6 mph - N/A   Overcast
5:35 PM 5.0 °F -4.1 °F -2.2 °F 72% 30.11 in 10.0 mi WSW 4.6 mph - N/A   Overcast
5:55 PM 5.0 °F -2.1 °F -2.2 °F 72% 30.11 in 10.0 mi WSW 3.5 mph - N/A   Overcast
6:15 PM 5.0 °F -2.1 °F -2.2 °F 72% 30.11 in 10.0 mi WSW 3.5 mph - N/A   Overcast
6:35 PM 5.0 °F -2.1 °F -0.4 °F 78% 30.10 in 10.0 mi WSW 3.5 mph - N/A   Overcast
6:55 PM 5.0 °F - -0.4 °F 78% 30.10 in 10.0 mi Calm Calm - N/A   Overcast
7:15 PM 5.0 °F - -0.4 °F 78% 30.10 in 10.0 mi Calm Calm - N/A   Overcast
7:35 PM 5.0 °F - -0.4 °F 78% 30.10 in 10.0 mi Calm Calm - N/A   Overcast
7:55 PM 5.0 °F - -0.4 °F 78% 30.10 in 10.0 mi Calm Calm - N/A   Overcast
8:15 PM 5.0 °F - -0.4 °F 78% 30.09 in 10.0 mi Calm Calm - N/A   Overcast
8:35 PM 3.2 °F - -0.4 °F 85% 30.09 in 10.0 mi Calm Calm - N/A   Overcast
8:55 PM 3.2 °F -4.2 °F -0.4 °F 85% 30.09 in 10.0 mi WNW 3.5 mph - N/A   Overcast
9:15 PM 1.4 °F -6.2 °F -0.4 °F 92% 30.09 in 10.0 mi WNW 3.5 mph - N/A   Overcast
9:35 PM 1.4 °F -6.2 °F -2.2 °F 85% 30.08 in 10.0 mi West 3.5 mph - N/A   Overcast
9:55 PM -0.4 °F - -4.0 °F 85% 30.08 in 10.0 mi Calm Calm - N/A   Overcast
10:15 PM -0.4 °F -8.3 °F -2.2 °F 92% 30.09 in 10.0 mi NNW 3.5 mph - N/A   Mostly Cloudy
10:35 PM -0.4 °F -12.0 °F -4.0 °F 85% 30.10 in 10.0 mi NNW 5.8 mph - N/A   Mostly Cloudy
10:55 PM -0.4 °F -14.7 °F -4.0 °F 85% 30.10 in 10.0 mi WNW 8.1 mph - N/A   Overcast
11:15 PM -0.4 °F -14.7 °F -5.8 °F 78% 30.10 in 10.0 mi NW 8.1 mph - N/A   Scattered Clouds
11:35 PM -2.2 °F -16.8 °F -7.6 °F 78% 30.10 in 10.0 mi NW 8.1 mph - N/A   Clear
11:55 PM -2.2 °F -15.6 °F -7.6 °F 78% 30.11 in 10.0 mi NW 6.9 mph - N/A   Clear